Location: Zagreb
(45.8000°N, 16.0000°E)
Time: 21:16:42
(UTC+01:00)

CAS-4B - Visible Passes

Search period start: 25 February 2021 00:00
Search period end: 07 March 2021 00:00
Orbit: 529 x 542 km, 43.0° (Epoch: 25 February)

Date Brightness Start Highest point End Pass type
(mag) Time Alt. Az. Time Alt. Az. Time Alt. Az.
02 Mar ? 20:13:07 10° SW 20:14:00 15° SW 20:14:00 15° SW visible
03 Mar ? 18:25:07 10° SSE 18:26:47 12° SE 18:28:27 10° ESE visible
03 Mar ? 20:02:22 10° SW 20:04:23 24° SSW 20:04:23 24° SSW visible
04 Mar ? 18:13:42 10° S 18:16:05 15° SSE 18:18:27 10° ESE visible
04 Mar ? 19:51:40 10° SW 19:54:40 35° SSW 19:54:40 35° SSW visible
05 Mar ? 19:41:00 10° WSW 19:44:52 45° S 19:44:52 45° S visible
06 Mar ? 19:30:21 10° WSW 19:34:21 50° SSE 19:35:00 45° SE visible
06 Mar ? 21:10:13 10° W 21:10:20 11° W 21:10:20 11° W visible
